Location: Peebles
(55.6412°N, 3.1714°W)
Time: 17:08:05
(UTC+00:00)

MOZHAYETS 4 - Pass Details

Date: 15 December 2023
Orbit: 654 x 672 km, 98.3° (Epoch: 03 March)

Event Time Altitude Azimuth Distance (km) Brightness Sun altitude
Exits shadow 18:19:12 - 4° (N) 2,795 10.8 -20.6°
Reaches altitude 10° 18:21:25 10° 348° (NNW) 2,122 10.3 -20.9°
Maximum altitude 18:24:20 17° 309° (NW) 1,705 10.3 -21.3°
Drops below altitude 10° 18:27:14 10° 270° (W) 2,112 11.4 -21.7°
Sets 18:30:08 0° 251° (WSW) 3,021 12.5 -22.1°
